Preview of NWS' New Version of Forecast
This preview is not operational and should not be used for support decisions.

Regional Weather Roundup (RWR)

Issued by National Weather Service (NWS)

                            
000
ASUS45 KCYS 192010
RWRWY 

WYOMING REGIONAL WEATHER ROUNDUP
NATIONAL WEATHER SERVICE CHEYENNE WY
200 PM MDT MON AUG 19 2019

NOTE:  "FAIR" INDICATES FEW OR NO CLOUDS BELOW 12,000 FEET
WITH NO SIGNIFICANT WEATHER AND/OR OBSTRUCTIONS TO VISIBILITY.

WYZ001-192100-
YELLOWSTONE NATIONAL PARK
  
CITY           SKY/WX    TMP DP  RH WIND       PRES   REMARKS
LK YELLOWSTONE   N/A     75  31  19 VRB6      30.27F                  
W YELLOWSTONE  NOT AVBL                                               

$$
WYZ002>013-054>058-071-098>099-192100-
NORTHERN WYOMING
  
CITY           SKY/WX    TMP DP  RH WIND       PRES   REMARKS
JACKSON        FAIR      84  33  16 S14       30.16                   
CODY           FAIR      87  45  23 N7        30.01F                  
GREYBULL       FAIR      95  33  11 VRB6      29.91F HX  90           
WORLAND        FAIR      95  35  12 NE6       29.92F HX  90           
SHERIDAN       FAIR      92  43  18 N10       29.95F                  
BUFFALO        FAIR      90  39  16 N13G22    30.02S                  
GILLETTE       FAIR      92  38  15 NW10G22   29.96F                  
HULETT         FAIR      88  50  27 W6        29.98                   
NEWCASTLE      FAIR      90  43  19 W5        29.98                   

$$
WYZ014>020-022>026-101>103-192100-
CENTRAL WYOMING
  
CITY           SKY/WX    TMP DP  RH WIND       PRES   REMARKS
BIG PINEY      FAIR      82  27  13 CALM      30.21F                  
PINEDALE       FAIR      82  21  10 W5G17     30.23                   
DUBOIS         FAIR      82  21  10 NW15G28   30.19                   
LANDER         FAIR      91  25   9 SW12G26   30.07F                  
RIVERTON       FAIR      91  27  10 S9G23     30.05F                  
CASPER         FAIR      93  22   7 W20G32    30.05F                  
DOUGLAS        FAIR      96  27   8 W20G28    30.03F HX  90           

$$
WYZ021-027>030-104>119-192100-
SOUTHERN WYOMING
  
CITY           SKY/WX    TMP DP  RH WIND       PRES   REMARKS
EVANSTON       FAIR      82  21  10 S14G26    30.25F                  
KEMMERER       FAIR      82  19   9 SW17G25   30.25                   
ROCK SPRINGS   FAIR      85  23  10 SE9       30.21F                  
DIXON          FAIR      87  20   8 SW6G18    30.24S                  
RAWLINS        FAIR      89  24   9 S14G23    30.22F                  
SARATOGA       FAIR      84  27  12 W3        30.25S                  
LARAMIE        FAIR      82  23  11 W13       30.25S                  
CHEYENNE       FAIR      92  24   8 W15       30.15F                  
TORRINGTON     FAIR      96  35  11 NW12G20   29.98F HX  91           
PINE BLUFFS    FAIR      93  28  10 NW10G16   30.08F                  

$$